CW2057 Weather Reports


Display with metric or nautical units.
time (UTC)temp
F
wind
direction
speed
MPH
gust
MPH
rain 1hr
in
rain 24hr
in
rain mn
in
humidity
%
barometer
mb
20260505083124 59 243 1.0 4.0 0.00 0.00 0.00 64 1011.7
20260505082614 59 273 2.0 4.0 0.00 0.00 0.00 64 1011.6
20260505082123 59 251 1.0 4.0 0.00 0.00 0.00 64 1011.6
20260505081653 59 290 1.0 6.0 0.00 0.00 0.00 64 1011.6
20260505081120 59 234 1.0 6.0 0.00 0.00 0.00 64 1011.6
20260505080642 59 253 3.0 5.0 0.00 0.00 0.00 64 1011.7
20260505080130 59 201 1.0 4.0 0.00 0.00 0.00 64 1011.6
20260505075617 59 253 1.0 4.0 0.00 0.00 0.00 65 1011.5
20260505075146 59 233 0.0 3.0 0.00 0.00 0.00 65 1011.6
20260505074615 59 210 1.0 3.0 0.00 0.00 0.00 65 1011.6
20260505074123 59 249 0.0 2.0 0.00 0.00 0.00 65 1011.5
20260505073632 59 280 1.0 2.0 0.00 0.00 0.00 66 1011.4
20260505073118 58 224 0.0 1.0 0.00 0.00 0.00 66 1011.3
20260505072626 58 330 0.0 1.0 0.00 0.00 0.00 66 1011.4
20260505072115 58 270 0.0 0.0 0.00 0.00 0.00 66 1011.4
20260505071623 59 270 0.0 0.0 0.00 0.00 0.00 66 1011.3
20260505071128 59 241 0.0 0.0 0.00 0.00 0.00 65 1011.2
20260505070618 59 228 0.0 0.0 0.00 0.00 0.00 65 1011.1
20260505070127 59 250 0.0 0.0 0.00 0.00 0.00 65 1011.2
20260505065616 59 305 0.0 0.0 0.00 0.00 0.00 65 1011.1
20260505065125 59 305 0.0 0.0 0.00 0.00 0.00 65 1011.2
20260505064650 59 305 0.0 0.0 0.00 0.00 0.00 64 1011.1
20260505064118 60 305 0.0 1.0 0.00 0.00 0.00 64 1011.2
20260505063646 60 308 0.0 2.0 0.00 0.00 0.00 63 1011.2
20260505063134 60 307 0.0 2.0 0.00 0.00 0.00 63 1011.3
20260505062622 60 227 0.0 2.0 0.00 0.00 0.00 63 1011.3
20260505062152 60 314 0.0 1.0 0.00 0.00 0.00 63 1011.3
20260505061638 60 276 0.0 1.0 0.00 0.00 0.00 62 1011.3
20260505061126 60 233 0.0 4.0 0.00 0.00 0.00 63 1011.2
20260505060616 61 259 0.0 4.0 0.00 0.00 0.00 62 1011.3
20260505060124 61 313 0.0 0.0 0.00 0.00 0.00 62 1011.3
20260505055613 61 313 0.0 0.0 0.00 0.00 0.00 61 1011.2
20260505055121 61 313 0.0 2.0 0.00 0.00 0.00 61 1011.4
20260505054630 61 313 0.0 2.0 0.00 0.00 0.00 61 1011.4
20260505054119 61 255 0.0 2.0 0.00 0.00 0.00 61 1011.4
20260505053629 61 218 0.0 2.0 0.00 0.00 0.00 60 1011.4
20260505053116 62 306 0.0 3.0 0.00 0.00 0.00 60 1011.4
20260505052625 62 306 1.0 3.0 0.00 0.00 0.00 59 1011.4
20260505052115 62 243 0.0 2.0 0.00 0.00 0.00 59 1011.4
20260505051620 62 209 0.0 3.0 0.00 0.00 0.00 59 1011.5
20260505051129 62 295 1.0 3.0 0.00 0.00 0.00 59 1011.6
20260505050618 62 294 0.0 3.0 0.00 0.00 0.00 58 1011.6
20260505050126 62 281 1.0 3.0 0.00 0.00 0.00 59 1011.5
20260505041642 61 241 0.0 2.0 0.00 0.00 0.00 59 1011.2
20260505041127 62 280 0.0 0.0 0.00 0.00 0.00 58 1011.2
20260505040618 62 292 0.0 1.0 0.00 0.00 0.00 58 1011.3
20260505040143 62 271 0.0 2.0 0.00 0.00 0.00 57 1011.3
20260505035648 62 270 0.0 2.0 0.00 0.00 0.00 57 1011.3
20260505035114 62 322 0.0 0.0 0.00 0.00 0.00 56 1011.2
20260505034623 62 322 0.0 0.0 0.00 0.00 0.00 57 1011.4
20260505034131 62 322 0.0 0.0 0.00 0.00 0.00 57 1011.3
20260505033620 62 322 0.0 0.0 0.00 0.00 0.00 56 1011.2
20260505033129 62 322 0.0 0.0 0.00 0.00 0.00 56 1011.3
20260505032617 62 322 0.0 0.0 0.00 0.00 0.00 55 1011.3
20260505032126 63 322 0.0 1.0 0.00 0.00 0.00 54 1011.2
20260505031615 63 322 0.0 1.0 0.00 0.00 0.00 54 1011.2
20260505031124 63 317 0.0 2.0 0.00 0.00 0.00 54 1011.2
20260505030632 63 320 1.0 2.0 0.00 0.00 0.00 54 1011.3
20260505030141 63 260 0.0 2.0 0.00 0.00 0.00 54 1011.2
20260505025629 63 95 0.0 1.0 0.00 0.00 0.00 54 1011.2
20260505025117 63 233 0.0 0.0 0.00 0.00 0.00 53 1011.2
20260505024646 63 253 0.0 0.0 0.00 0.00 0.00 53 1011.3
20260505024115 64 251 0.0 3.0 0.00 0.00 0.00 52 1011.3
20260505023619 64 247 0.0 3.0 0.00 0.00 0.00 52 1011.3
20260505023128 64 275 0.0 2.0 0.00 0.00 0.00 51 1011.3
20260505022638 64 165 0.0 2.0 0.00 0.00 0.00 51 1011.3
20260505022146 65 261 0.0 3.0 0.00 0.00 0.00 51 1011.2
20260505021614 65 255 1.0 3.0 0.00 0.00 0.00 50 1011.1
20260505021122 65 187 0.0 1.0 0.00 0.00 0.00 50 1011.2
20260505020631 65 277 0.0 2.0 0.00 0.00 0.00 49 1011.2
20260505020139 66 165 0.0 3.0 0.00 0.00 0.00 49 1011.3
20260505015628 65 165 1.0 3.0 0.00 0.00 0.00 49 1011.2
20260505015117 65 165 1.0 3.0 0.00 0.00 0.00 48 1011.1
20260505014625 66 165 0.0 4.0 0.00 0.00 0.00 48 1011.0
20260505014114 66 165 1.0 4.0 0.00 0.00 0.00 47 1011.0
20260505013623 66 165 1.0 5.0 0.00 0.00 0.00 47 1010.9
20260505013130 67 165 2.0 5.0 0.00 0.00 0.00 46 1010.8
20260505012619 67 165 1.0 5.0 0.00 0.00 0.00 46 1010.8
20260505012127 67 165 1.0 5.0 0.00 0.00 0.00 46 1010.8
20260505011617 67 165 1.0 6.0 0.00 0.00 0.00 46 1010.8
20260505011121 67 165 2.0 6.0 0.00 0.00 0.00 45 1010.8
20260505010629 68 165 1.0 5.0 0.00 0.00 0.00 45 1010.7
20260505010119 68 165 0.0 5.0 0.00 0.00 0.00 45 1010.7
20260505005626 68 165 1.0 6.0 0.00 0.00 0.00 44 1010.7
20260505005114 68 165 2.0 6.0 0.00 0.00 0.00 44 1010.7
20260505004623 69 165 0.0 5.0 0.00 0.00 0.00 43 1010.6
20260505004152 69 165 2.0 5.0 0.00 0.00 0.00 43 1010.6
20260505003620 69 165 1.0 6.0 0.00 0.00 0.00 42 1010.6
20260505003128 70 211 1.0 9.0 0.00 0.00 0.00 42 1010.5
20260505002617 70 165 0.0 9.0 0.00 0.00 0.00 41 1010.6
20260505002126 70 165 3.0 8.0 0.00 0.00 0.00 41 1010.6
20260505001615 70 233 3.0 8.0 0.00 0.00 0.00 41 1010.6
20260505001123 70 232 2.0 9.0 0.00 0.00 0.00 40 1010.6
20260505000631 70 227 3.0 10.0 0.00 0.00 0.00 40 1010.5
20260505000120 70 165 4.0 12.0 0.00 0.00 0.00 40 1010.5
20260504235628 70 249 4.0 12.0 0.00 0.00 0.00 40 1010.5
20260504235116 70 199 2.0 13.0 0.00 0.00 0.00 40 1010.4
20260504234644 71 263 4.0 13.0 0.00 0.00 0.00 40 1010.4
20260504234127 71 232 2.0 12.0 0.00 0.00 0.00 39 1010.4
20260504233616 71 229 2.0 10.0 0.00 0.00 0.00 38 1010.4
20260504233124 71 253 3.0 12.0 0.00 0.00 0.00 38 1010.4
20260504232613 72 272 5.0 12.0 0.00 0.00 0.00 38 1010.4
20260504232122 72 216 5.0 18.0 0.00 0.00 0.00 37 1010.5
20260504231630 72 22 4.0 18.0 0.00 0.00 0.00 37 1010.4
20260504231118 72 259 4.0 13.0 0.00 0.00 0.00 37 1010.4
20260504230627 73 206 4.0 13.0 0.00 0.00 0.00 36 1010.3
20260504230117 73 197 3.0 10.0 0.00 0.00 0.00 37 1010.4
20260504225624 73 242 3.0 10.0 0.00 0.00 0.00 36 1010.4
20260504225132 73 255 3.0 11.0 0.00 0.00 0.00 36 1010.4
20260504224640 73 249 4.0 13.0 0.00 0.00 0.00 36 1010.3
20260504224129 73 280 7.0 13.0 0.00 0.00 0.00 36 1010.3
20260504223638 73 251 2.0 9.0 0.00 0.00 0.00 35 1010.3
20260504223144 73 194 4.0 9.0 0.00 0.00 0.00 36 1010.3
20260504222633 73 249 3.0 11.0 0.00 0.00 0.00 35 1010.2
20260504222123 73 165 4.0 15.0 0.00 0.00 0.00 35 1010.2
20260504221627 73 261 5.0 15.0 0.00 0.00 0.00 34 1010.2
20260504221116 74 155 7.0 14.0 0.00 0.00 0.00 35 1010.2
20260504220625 74 10 4.0 15.0 0.00 0.00 0.00 34 1010.2
20260504220113 74 160 2.0 17.0 0.00 0.00 0.00 34 1010.2
20260504215620 75 241 4.0 17.0 0.00 0.00 0.00 34 1010.1
20260504215129 74 239 4.0 13.0 0.00 0.00 0.00 34 1010.1
20260504214617 74 186 4.0 12.0 0.00 0.00 0.00 33 1010.2
20260504214125 75 326 3.0 12.0 0.00 0.00 0.00 33 1010.2
20260504213635 75 205 5.0 14.0 0.00 0.00 0.00 34 1010.1
20260504213122 75 165 4.0 16.0 0.00 0.00 0.00 34 1010.2
20260504212631 75 245 7.0 15.0 0.00 0.00 0.00 34 1010.2
20260504212120 75 253 4.0 12.0 0.00 0.00 0.00 35 1010.3
20260504211628 74 279 4.0 13.0 0.00 0.00 0.00 35 1010.3
20260504211138 75 177 7.0 15.0 0.00 0.00 0.00 33 1010.4
20260504210626 75 251 4.0 15.0 0.00 0.00 0.00 33 1010.3
20260504210116 75 182 3.0 15.0 0.00 0.00 0.00 34 1010.3
20260504205623 75 56 2.0 14.0 0.00 0.00 0.00 33 1010.3
20260504205128 76 98 4.0 15.0 0.00 0.00 0.00 34 1010.3
20260504204618 76 193 3.0 15.0 0.00 0.00 0.00 35 1010.3
20260504204147 76 203 5.0 12.0 0.00 0.00 0.00 34 1010.3
20260504203615 76 236 4.0 15.0 0.00 0.00 0.00 33 1010.2
20260504203124 76 290 5.0 15.0 0.00 0.00 0.00 34 1010.4
20260504202613 77 213 4.0 12.0 0.00 0.00 0.00 35 1010.5
20260504202122 76 195 4.0 12.0 0.00 0.00 0.00 34 1010.7
20260504201632 76 149 2.0 12.0 0.00 0.00 0.00 35 1010.7
20260504201121 76 154 3.0 11.0 0.00 0.00 0.00 34 1010.7
20260504200630 77 249 2.0 11.0 0.00 0.00 0.00 33 1010.7
20260504200118 77 342 3.0 12.0 0.00 0.00 0.00 33 1010.7
20260504195628 76 305 3.0 12.0 0.00 0.00 0.00 34 1010.7
20260504195135 76 255 2.0 12.0 0.00 0.00 0.00 34 1011.0
20260504194644 76 308 6.0 13.0 0.00 0.00 0.00 33 1011.0
20260504194132 76 305 4.0 13.0 0.00 0.00 0.00 36 1011.1
20260504193621 76 218 5.0 11.0 0.00 0.00 0.00 34 1011.3
20260504193147 76 222 7.0 15.0 0.00 0.00 0.00 33 1011.5
20260504192614 76 286 5.0 16.0 0.00 0.00 0.00 34 1011.5
20260504192122 75 229 6.0 16.0 0.00 0.00 0.00 36 1011.6
20260504191651 75 320 3.0 9.0 0.00 0.00 0.00 36 1011.6
20260504191118 75 202 3.0 10.0 0.00 0.00 0.00 35 1011.8
20260504190627 75 81 1.0 10.0 0.00 0.00 0.00 37 1011.8
20260504190115 76 278 4.0 13.0 0.00 0.00 0.00 37 1012.0
20260504185644 75 226 4.0 13.0 0.00 0.00 0.00 36 1012.0
20260504185131 75 241 5.0 13.0 0.00 0.00 0.00 36 1012.0
20260504184621 75 51 6.0 11.0 0.00 0.00 0.00 36 1012.2
20260504184149 75 263 3.0 8.0 0.00 0.00 0.00 35 1012.1
20260504183637 75 284 3.0 12.0 0.00 0.00 0.00 36 1012.3
20260504183124 75 312 4.0 12.0 0.00 0.00 0.00 35 1012.4
20260504182649 75 232 4.0 12.0 0.00 0.00 0.00 36 1012.4
20260504182137 75 288 3.0 17.0 0.00 0.00 0.00 35 1012.4
20260504181624 75 21 5.0 17.0 0.00 0.00 0.00 34 1012.4
20260504181114 75 307 7.0 13.0 0.00 0.00 0.00 34 1012.5
20260504180622 74 191 5.0 11.0 0.00 0.00 0.00 33 1012.5
20260504180132 74 204 3.0 9.0 0.00 0.00 0.00 36 1012.6
20260504175619 74 293 2.0 11.0 0.00 0.00 0.00 36 1012.7
20260504175129 74 278 3.0 11.0 0.00 0.00 0.00 35 1012.7
20260504174618 73 317 3.0 8.0 0.00 0.00 0.00 34 1012.6
20260504174126 74 201 1.0 9.0 0.00 0.00 0.00 34 1012.6
20260504173615 74 293 3.0 9.0 0.00 0.00 0.00 35 1012.9
20260504173124 73 269 2.0 16.0 0.00 0.00 0.00 35 1012.8
20260504172632 73 269 7.0 16.0 0.00 0.00 0.00 36 1012.9
20260504172120 73 295 5.0 12.0 0.00 0.00 0.00 35 1012.9
20260504171648 74 284 4.0 11.0 0.00 0.00 0.00 31 1013.0
20260504171116 73 282 5.0 12.0 0.00 0.00 0.00 37 1013.0
20260504170626 73 181 4.0 10.0 0.00 0.00 0.00 34 1013.1
20260504170150 73 325 2.0 11.0 0.00 0.00 0.00 36 1013.1
20260504160153 72 293 5.0 11.0 0.00 0.00 0.00 33 1014.0
20260504151115 69 165 2.0 13.0 0.00 0.00 0.00 39 1014.5
20260504150623 69 46 4.0 13.0 0.00 0.00 0.00 35 1014.6
20260504150132 69 261 3.0 10.0 0.00 0.00 0.00 36 1014.7
20260504141130 65 325 1.0 9.0 0.00 0.00 0.00 40 1014.7
20260504140619 66 241 1.0 7.0 0.00 0.00 0.00 42 1014.9
20260504140147 65 230 3.0 7.0 0.00 0.00 0.00 44 1014.9
20260504130615 61 217 1.0 5.0 0.00 0.00 0.00 50 1015.2
20260504130124 60 293 1.0 5.0 0.00 0.00 0.00 49 1015.2
20260504120125 50 276 0.0 4.0 0.00 0.00 0.00 68 1015.5
20260504110618 47 304 0.0 2.0 0.00 0.00 0.00 73 1015.6
20260504110127 46 304 0.0 2.0 0.00 0.00 0.00 73 1015.6
20260504100127 47 303 0.0 0.0 0.00 0.00 0.00 73 1015.5
20260504090131 45 212 0.0 0.0 0.00 0.00 0.00 77 1015.9